When you browse on this site, cookies collect data to enhance your experience and personalize the content and advertising you see.
Visit our Privacy Policy to learn more. By continuing to use the site, you agree to this use of cookies and data.
  • In United Kingdom
  • List of Countries
  • For 7 days
  • Water Temperature
  • Satellite Maps
  • Weather Map
  • Weather Widgets
  • user-avatar
    Login

    Hourly Weather Mayrhofen

    Today, 11 December, Tuesday

    Time Temperature Precipitation Wind Pressure Humidity
    00:00 -9°C° 1.1 mm 3 mps 614 mmHg 94%
    01:00 -8°C° 0 mm 2 mps 614 mmHg 95%
    02:00 -8°C° 0.5 mm 2 mps 614 mmHg 95%
    03:00 -8°C° 0.5 mm 2 mps 614 mmHg 94%
    04:00 -9°C° 0.5 mm 2 mps 614 mmHg 94%
    05:00 -9°C° 0.4 mm 2 mps 614 mmHg 94%
    06:00 -9°C° 0.4 mm 2 mps 614 mmHg 94%
    07:00 -10°C° 0 mm 3 mps 614 mmHg 94%
    08:00 -10°C° 0.3 mm 3 mps 614 mmHg 92%
    09:00 -10°C° 0.3 mm 3 mps 614 mmHg 89%
    10:00 -9°C° 0.3 mm 3 mps 615 mmHg 87%
    11:00 -9°C° 0.2 mm 3 mps 615 mmHg 84%
    12:00 -9°C° 0.2 mm 3 mps 615 mmHg 81%
    13:00 -7°C° 0.2 mm 2 mps 615 mmHg 78%
    14:00 -8°C° 0.1 mm 2 mps 615 mmHg 81%
    15:00 -9°C° 0.1 mm 2 mps 614 mmHg 84%
    16:00 -10°C° 0.1 mm 2 mps 614 mmHg 87%
    17:00 -12°C° 0.1 mm 2 mps 614 mmHg 88%
    18:00 -13°C° 0.1 mm 2 mps 614 mmHg 89%
    19:00 -14°C° 0.1 mm 2 mps 613 mmHg 90%
    20:00 -14°C° 0 mm 2 mps 613 mmHg 89%
    21:00 -15°C° 0 mm 2 mps 613 mmHg 87%
    22:00 -15°C° 0 mm 2 mps 613 mmHg 86%
    23:00 -15°C° 0 mm 2 mps 613 mmHg 86%

    Tomorrow, 12 December, Wednesday

    Time Temperature Precipitation Wind Pressure Humidity
    00:00 -16°C° 0 mm 2 mps 613 mmHg 85%
    01:00 -16°C° 0 mm 2 mps 613 mmHg 85%
    02:00 -16°C° 0 mm 2 mps 613 mmHg 85%
    03:00 -16°C° 0 mm 2 mps 612 mmHg 86%
    04:00 -16°C° 0 mm 2 mps 612 mmHg 86%
    05:00 -16°C° 0 mm 2 mps 612 mmHg 86%
    06:00 -16°C° 0 mm 2 mps 612 mmHg 86%
    07:00 -16°C° 0 mm 2 mps 612 mmHg 86%
    08:00 -15°C° 0 mm 2 mps 613 mmHg 84%
    09:00 -11°C° 0 mm 1 mps 614 mmHg 81%
    10:00 -9°C° 0 mm 1 mps 615 mmHg 79%
    11:00 -8°C° 0 mm 1 mps 615 mmHg 77%
    12:00 -7°C° 0 mm 1 mps 615 mmHg 75%
    13:00 -6°C° 0 mm 1 mps 615 mmHg 74%
    14:00 -7°C° 0 mm 1 mps 614 mmHg 79%
    15:00 -8°C° 0 mm 1 mps 614 mmHg 84%
    16:00 -9°C° 0 mm 1 mps 613 mmHg 89%
    17:00 -10°C° 0 mm 1 mps 613 mmHg 89%
    18:00 -11°C° 0 mm 1 mps 612 mmHg 90%
    19:00 -13°C° 0 mm 1 mps 612 mmHg 91%
    20:00 -13°C° 0 mm 1 mps 612 mmHg 90%
    21:00 -13°C° 0 mm 1 mps 611 mmHg 89%
    22:00 -14°C° 0 mm 1 mps 611 mmHg 88%
    23:00 -14°C° 0 mm 1 mps 611 mmHg 86%

    Day after tomorrow, 13 December, Thursday

    Time Temperature Precipitation Wind Pressure Humidity
    00:00 -14°C° 0 mm 1 mps 611 mmHg 85%
    01:00 -14°C° 0 mm 1 mps 610 mmHg 83%
    02:00 -16°C° 0 mm 2 mps 610 mmHg 83%
    03:00 -16°C° 0 mm 2 mps 610 mmHg 83%
    04:00 -17°C° 0 mm 2 mps 610 mmHg 83%
    05:00 -17°C° 0 mm 2 mps 609 mmHg 84%
    06:00 -17°C° 0 mm 2 mps 609 mmHg 84%
    07:00 -17°C° 0 mm 2 mps 609 mmHg 84%
    08:00 -15°C° 0 mm 2 mps 609 mmHg 83%
    09:00 -14°C° 0 mm 2 mps 610 mmHg 82%
    10:00 -12°C° 0 mm 2 mps 610 mmHg 81%
    11:00 -10°C° 0 mm 2 mps 610 mmHg 79%
    12:00 -9°C° 0 mm 2 mps 611 mmHg 77%
    13:00 -7°C° 0 mm 2 mps 611 mmHg 75%
    14:00 -8°C° 0 mm 2 mps 610 mmHg 79%
    15:00 -9°C° 0 mm 1 mps 610 mmHg 83%
    16:00 -10°C° 0 mm 1 mps 609 mmHg 87%
    17:00 -11°C° 0 mm 1 mps 609 mmHg 86%
    18:00 -14°C° 0 mm 2 mps 609 mmHg 86%
    19:00 -15°C° 0 mm 2 mps 609 mmHg 86%
    20:00 -15°C° 0 mm 2 mps 609 mmHg 86%
    21:00 -15°C° 0 mm 2 mps 609 mmHg 86%
    22:00 -16°C° 0 mm 2 mps 609 mmHg 85%
    23:00 -16°C° 0 mm 2 mps 609 mmHg 85%

    14 December, Friday

    Time Temperature Precipitation Wind Pressure Humidity
    00:00 -16°C° 0 mm 2 mps 609 mmHg 85%
    01:00 -16°C° 0 mm 2 mps 609 mmHg 84%
    02:00 -16°C° 0 mm 2 mps 609 mmHg 82%
    03:00 -16°C° 0 mm 2 mps 609 mmHg 80%
    04:00 -16°C° 0 mm 2 mps 609 mmHg 78%
    05:00 -14°C° 0 mm 1 mps 609 mmHg 75%
    06:00 -14°C° 0 mm 1 mps 609 mmHg 73%
    07:00 -14°C° 0 mm 1 mps 609 mmHg 70%
    08:00 -12°C° 0 mm 1 mps 609 mmHg 69%
    09:00 -11°C° 0 mm 1 mps 610 mmHg 68%
    10:00 -9°C° 0 mm 1 mps 611 mmHg 68%
    11:00 -8°C° 0 mm 1 mps 611 mmHg 65%
    12:00 -6°C° 0 mm 1 mps 612 mmHg 62%
    13:00 -4°C° 0 mm 1 mps 612 mmHg 58%
    14:00 -7°C° 0 mm 1 mps 611 mmHg 66%
    15:00 -8°C° 0 mm 1 mps 611 mmHg 74%
    16:00 -10°C° 0 mm 0 mps 610 mmHg 81%
    17:00 -11°C° 0 mm 1 mps 610 mmHg 81%
    18:00 -12°C° 0 mm 1 mps 610 mmHg 81%
    19:00 -13°C° 0 mm 1 mps 610 mmHg 81%
    20:00 -13°C° 0 mm 1 mps 611 mmHg 78%
    21:00 -13°C° 0 mm 1 mps 611 mmHg 75%
    22:00 -14°C° 0 mm 1 mps 611 mmHg 72%
    23:00 -14°C° 0 mm 1 mps 611 mmHg 70%

    15 December, Saturday

    Time Temperature Precipitation Wind Pressure Humidity
    00:00 -16°C° 0 mm 2 mps 611 mmHg 67%
    01:00 -16°C° 0 mm 2 mps 611 mmHg 65%
    02:00 -16°C° 0 mm 2 mps 611 mmHg 66%
    03:00 -17°C° 0 mm 2 mps 612 mmHg 67%
    04:00 -17°C° 0 mm 2 mps 612 mmHg 69%
    05:00 -17°C° 0 mm 2 mps 612 mmHg 71%
    06:00 -17°C° 0 mm 2 mps 612 mmHg 73%
    07:00 -17°C° 0 mm 2 mps 612 mmHg 76%
    08:00 -16°C° 0 mm 2 mps 613 mmHg 76%
    09:00 -15°C° 0 mm 2 mps 614 mmHg 76%
    10:00 -13°C° 0 mm 2 mps 615 mmHg 76%
    11:00 -12°C° 0 mm 2 mps 616 mmHg 74%
    12:00 -10°C° 0 mm 2 mps 616 mmHg 72%
    13:00 -8°C° 0 mm 2 mps 616 mmHg 70%
    14:00 -10°C° 0 mm 2 mps 616 mmHg 75%
    15:00 -12°C° 0 mm 2 mps 615 mmHg 80%
    16:00 -13°C° 0 mm 2 mps 615 mmHg 85%
    17:00 -14°C° 0 mm 2 mps 615 mmHg 83%
    18:00 -15°C° 0 mm 2 mps 615 mmHg 80%
    19:00 -16°C° 0 mm 2 mps 615 mmHg 78%
    20:00 -16°C° 0 mm 2 mps 616 mmHg 74%
    21:00 -15°C° 0 mm 2 mps 616 mmHg 70%
    22:00 -15°C° 0 mm 2 mps 616 mmHg 67%
    23:00 -15°C° 0 mm 2 mps 616 mmHg 64%

    16 December, Sunday

    Time Temperature Precipitation Wind Pressure Humidity
    00:00 -15°C° 0 mm 2 mps 616 mmHg 61%
    01:00 -14°C° 0 mm 2 mps 616 mmHg 59%
    02:00 -14°C° 0 mm 2 mps 616 mmHg 56%
    03:00 -14°C° 0 mm 2 mps 616 mmHg 53%
    04:00 -13°C° 0 mm 2 mps 616 mmHg 50%
    05:00 -13°C° 0 mm 2 mps 616 mmHg 48%
    06:00 -13°C° 0 mm 2 mps 617 mmHg 46%
    07:00 -13°C° 0 mm 2 mps 617 mmHg 45%
    08:00 -9°C° 0 mm 1 mps 617 mmHg 47%
    09:00 -7°C° 0 mm 1 mps 618 mmHg 50%
    10:00 -4°C° 0 mm 1 mps 619 mmHg 52%
    11:00 -2°C° 0 mm 1 mps 619 mmHg 55%
    12:00 0°C° 0 mm 1 mps 619 mmHg 57%
    13:00 +1°C° 0 mm 1 mps 619 mmHg 60%
    14:00 0°C° 0 mm 1 mps 619 mmHg 58%
    15:00 -1°C° 0 mm 1 mps 618 mmHg 56%
    16:00 -2°C° 0 mm 1 mps 618 mmHg 54%
    17:00 -2°C° 0 mm 1 mps 618 mmHg 52%
    18:00 -3°C° 0 mm 1 mps 618 mmHg 50%
    19:00 -3°C° 0 mm 1 mps 618 mmHg 48%
    20:00 -5°C° 0 mm 2 mps 618 mmHg 48%
    21:00 -5°C° 0 mm 2 mps 618 mmHg 47%
    22:00 -5°C° 0 mm 2 mps 618 mmHg 46%
    23:00 -4°C° 0 mm 2 mps 617 mmHg 49%
    Show more